Flag for Norway Weather past 2 weeks in Sandefjord, Norway

Now
57 °F

Scattered showers. Partly sunny.


Feels Like: 57 °F
Forecast: 54 / 66 °F
Wind: 5 mph from Southwest

Location: Torp

Current Time: Aug 20, 2014 at 8:50:26 PM

Latest Report: Aug 20, 2014 at 7:50 PM


Visibility: N/A

Pressure: 29.47 "Hg

Humidity: 82%

Dew point: 52 °F

Location of SandefjordLocation

Historic Weather in Sandefjord — Graph

°F

Sandefjord temperature yesterday

Maximum temperature yesterday: 63 °F (at 12:50 PM)
Minimum temperature yesterday: 52 °F (at 2:20 AM)
Average temperature yesterday: 56 °F

Past Weeks' High & Low Weather Summary

 TemperatureHumidityPressure
High73 °F (Aug 7, 2:20 PM)100% (Aug 6, 1:20 AM)29.95 "Hg (Aug 6, 1:20 AM)
Low45 °F (Aug 18, 6:50 AM)50% (Aug 7, 2:20 PM)29.18 "Hg (Aug 18, 8:50 AM)
Average60 °F81%29.61 "Hg
* Reported Aug 5 7:20 PM — Aug 20 7:50 PM, Sandefjord, Weather by CustomWeather, © 2014

Note: Actual official high and low records may vary slightly from our data, if they occured in-between our weather recording intervals... More about our weather records

Advertising

Sandefjord weather history for previous 24 hours

 ConditionsComfort  
Time TempWeatherWind HumidityBarometerVisibility
7:50 PM
Aug 20
57 °FScattered showers. Partly sunny.5 mph82%29.47 "HgN/A
7:20 PM59 °FScattered showers. Scattered clouds.6 mph82%29.47 "HgN/A
6:50 PM57 °FScattered showers. Scattered clouds.6 mph82%29.47 "HgN/A
6:20 PM55 °FScattered showers. Scattered clouds.6 mph88%29.47 "HgN/A
5:50 PM55 °FRain showers. Broken clouds.7 mph82%29.47 "HgN/A
5:20 PM57 °FLight rain. Partly sunny.10 mph82%29.47 "HgN/A
4:50 PM57 °FSprinkles. Partly sunny.13 mph82%29.47 "HgN/A
4:20 PM61 °FSprinkles. Scattered clouds.8 mph72%29.47 "HgN/A
3:50 PM61 °FThunderstorms. Scattered clouds.8 mph72%29.47 "HgN/A
3:20 PM63 °FScattered showers. Scattered clouds.6 mph64%29.47 "HgN/A
2:50 PM59 °FScattered showers. Scattered clouds.3 mph82%29.47 "HgN/A
2:20 PM59 °FLight rain. Scattered clouds.3 mph77%29.45 "Hg6 mi
1:50 PM64 °FRain showers. Scattered clouds.3 mph56%29.45 "HgN/A
1:20 PM66 °FScattered clouds.5 mph56%29.45 "HgN/A
12:50 PM66 °FScattered clouds.3 mph52%29.45 "HgN/A
12:20 PM64 °FScattered clouds.5 mph60%29.45 "HgN/A
11:50 AM64 °FSunny.3 mph56%29.45 "Hg10 mi
11:20 AM61 °FPassing clouds.6 mph59%29.45 "HgN/A
10:50 AM63 °FPassing clouds.7 mph64%29.45 "HgN/A
10:20 AM59 °FPassing clouds.6 mph68%29.45 "HgN/A
9:50 AM59 °FSunny.6 mph72%29.45 "Hg10 mi
9:20 AM59 °FPassing clouds.6 mph72%29.42 "HgN/A
8:50 AM55 °FSunny.2 mph82%29.42 "Hg10 mi
8:20 AM54 °FPassing clouds.3 mph88%29.42 "HgN/A
7:50 AM54 °FSunny.5 mph88%29.39 "Hg10 mi
7:20 AM55 °FSunny.5 mph82%29.39 "Hg10 mi
6:50 AM54 °FSunny.7 mph82%29.39 "Hg10 mi
6:20 AM54 °FClear.7 mph82%29.39 "Hg10 mi
5:50 AM52 °FClear.6 mph88%29.39 "Hg10 mi
5:20 AM52 °FPassing clouds.5 mph88%29.39 "HgN/A
4:50 AM52 °FPassing clouds.6 mph94%29.39 "HgN/A
4:20 AM52 °FPassing clouds.6 mph94%29.36 "HgN/A
3:50 AM52 °FPassing clouds.6 mph94%29.36 "HgN/A
3:20 AM54 °FOvercast.6 mph94%29.36 "HgN/A
2:50 AM54 °FOvercast.5 mph94%29.36 "HgN/A
2:20 AM54 °FOvercast.6 mph94%29.36 "HgN/A
1:50 AM52 °FPassing clouds.5 mph100%29.36 "HgN/A
1:20 AM52 °FPassing clouds.7 mph100%29.36 "HgN/A
12:50 AM52 °FLight fog.1 mph94%29.36 "Hg1 mi
12:20 AM52 °FFog.2 mph100%29.36 "Hg0 mi
11:50 PM
Aug 19
52 °FPassing clouds.3 mph100%29.36 "HgN/A
11:20 PM52 °FFog.1 mph100%29.33 "HgN/A
10:50 PM54 °FFog.No wind94%29.33 "HgN/A
10:20 PM54 °FFog.No wind100%29.33 "Hg6 mi
9:50 PM55 °FFog.3 mph94%29.33 "HgN/A
9:20 PM55 °FScattered clouds.3 mph94%29.33 "HgN/A
8:50 PM57 °FScattered clouds.3 mph88%29.33 "HgN/A
8:20 PM59 °FBroken clouds.5 mph82%29.33 "HgN/A
Weather by CustomWeather, © 2014

See weather overviewHow to use our weather pages